Location: Bush Observatory
(40.2653°N, 94.3194°W)
Time: 01:44:27
(UTC-05:00)

Vanguard 1 - Visible Passes

Search period start: 28 July 2016 00:00
Search period end: 07 August 2016 00:00
Orbit: 649 x 3835 km, 34.2° (Epoch: 26 July)

Date Brightness Start Highest point End Pass type
(mag) Time Alt. Az. Time Alt. Az. Time Alt. Az.
28 Jul 9.8 04:56:23 19° SW 04:59:04 38° S 05:03:20 10° ESE visible
29 Jul 11.5 03:03:32 13° ESE 03:03:32 13° ESE 03:04:13 10° ESE visible
29 Jul 9.7 05:16:15 13° WSW 05:19:59 41° S 05:24:22 10° ESE visible
30 Jul 10.9 03:23:25 22° SE 03:23:25 22° SE 03:25:22 10° ESE visible
30 Jul 9.8 05:36:43 10° WSW 05:40:55 39° S 05:45:21 10° ESE visible
31 Jul 10.2 03:43:20 33° SE 03:43:20 33° SE 03:46:26 10° ESE visible
01 Aug 9.7 04:03:15 41° S 04:03:16 41° S 04:07:25 10° ESE visible
02 Aug 9.7 04:23:12 37° SW 04:24:11 42° S 04:28:21 10° ESE visible
03 Aug 9.7 04:43:11 27° SW 04:45:06 39° S 04:49:13 10° ESE visible
04 Aug 11.7 02:50:29 13° ESE 02:50:29 13° ESE 02:50:57 10° ESE visible
04 Aug 9.9 05:03:13 19° WSW 05:05:59 34° SSW 05:10:00 10° SE visible
04 Aug 12.8 22:18:25 10° S 22:22:30 15° S 22:22:30 15° S visible
05 Aug 11.3 03:10:34 19° ESE 03:10:34 19° ESE 03:11:53 10° ESE visible
05 Aug 10.2 05:23:19 12° WSW 05:26:51 27° SSW 05:30:37 10° SE visible
05 Aug 12.6 22:37:17 10° SSW 22:43:38 20° S 22:43:38 20° S visible
06 Aug 10.8 03:30:44 26° SE 03:30:44 26° SE 03:32:45 10° ESE visible
06 Aug 10.6 05:44:10 10° WSW 05:47:40 20° SSW 05:50:59 10° SSE visible
06 Aug 12.3 22:57:03 10° SSW 23:04:44 25° S 23:04:44 25° S visible
